THOR ABLESTAR DEB, 323

Orbit data source: Space-Track

THOR ABLESTAR DEB, 323 is space debris in LEO originally from a launch on Thu, 29 Jun 1961 UTC launched from the Air Force Eastern Test Range (AFETR). Debris objects in space refer to the collection of defunct objects orbiting the Earth. Examples of debris include non-operational satellites, rocket bodies, and fragments generated from explosions, collisions, or faulty payload assembly.

Loading next visibility...
Identifier
323, 1961-015CZ
Orbit
LEO
Country
Flag of USUS
Related business
Manufacturer
Unknown
Mission
Spacecraft
Bus & Motor
Unknown
Mass
Unknown
Launch date (UTC)
1961-06-29 (64 years ago)
Launch vehicle
Unknown
Launch site
Air Force Eastern Test Range (AFETR)
Object type
Payload
Rocket body
Debris
Shape & HBR
Unknown shape, 0.1 m
Radar Cross Section
Small (<0.1 m²)

Expand to show TLE details & history
Last TLE update: 16 hours ago

TLE from 16 hours ago
0 THOR ABLESTAR DEB
1 00323U 61015CZ  25287.60232727  .00001043  00000-0  54961-3 0  9990
2 00323  66.8409   4.1032 0083856 267.3476  91.8015 14.16073893293693
Epoch: 2025-10-14T14:27Z
TLE epoch observation values (Epoch: 2025-10-14T14:27:21.076Z)
Latitude
-0.00003°
Longitude
123.87697°
Altitude
843.175 km
Speed
7.43 km/s
True Right ascension
00h 16m 24s
True Declination
0° 00' 00"
Sunlit
Object was in full shadow at epoch
Visualization orbit readout
Latitude
Unknown
Longitude
Unknown
Altitude
Unknown
Speed
Unknown
Apparent Right ascension
Unknown
Apparent Declination
Unknown
Sunlit
N/A
Visualization observer readout
Local Sidereal Time
00:42:44
Azimuth
Unknown
Elevation
Unknown
Doppler factor
Unknown
Orbital elements
Apogee altitude
897.534 km
Perigee altitude
776.527 km
Semi-major axis
7,215.167 km
Eccentricity
0.00839
Inclination
66.8409°
RAAN
4.1032°
Arg. of periapsis
267.3476°
True anomaly
92.76158°
Mean anomaly
91.8015°
Eccentric anomaly
92.28158°
Mean motion
3.54139 °/min
Orbital period
101.66 mins
BSTAR
0.00054961

Documentation

Showing up to 5 results
|